Location: Denia
(38.8500°N, 0.1170°E)
Time: 01:25:50
(UTC+01:00)

Envisat - Pass Details

Date: 20 January 2020
Orbit: 764 x 766 km, 98.1° (Epoch: 24 February)

Event Time Altitude Azimuth Distance (km) Brightness Sun altitude
Rises 06:58:50 0° 23° (NNE) 3,239 6.4 -14.7°
Reaches altitude 10° 07:01:22 10° 33° (NNE) 2,308 5.7 -14.2°
Maximum altitude 07:05:56 33° 97° (E) 1,265 4.9 -13.4°
Drops below altitude 10° 07:10:29 10° 161° (SSE) 2,293 6.0 -12.5°
Sets 07:12:58 0° 170° (S) 3,214 6.6 -12.0°
